GFSCGP_925_thetae_000.txt.gz
Theta_e
322 321 320 318 317 319 321 321 320 320 318 318 316 315 316 316 319 317 314 314 314 314 315 319 320 325 324 325 320 320 320 325 325 325 326 326 326 326 326 326 326 326 326 324
322 321 321 320 320 320 321 321 321 319 318 316 316 317 317 318 319 318 315 314 314 313 314 317 320 321 324 323 324 320 321 324 324 325 325 326 327 327 327 327 327 326 325 328
322 322 322 322 320 320 319 320 321 320 319 318 318 318 320 319 320 321 315 314 313 313 314 316 319 319 324 322 320 321 320 319 322 325 326 327 327 327 327 327 328 328 322 326
321 321 322 322 320 319 318 319 321 322 320 319 319 319 319 320 320 321 317 314 313 313 314 316 318 319 322 325 323 320 320 318 315 318 326 326 326 327 327 327 328 329 327 326
323 322 322 323 322 319 318 318 318 321 319 318 320 320 321 320 323 325 318 315 313 313 314 317 318 319 321 326 325 322 320 318 322 322 323 326 326 327 327 328 329 330 328 327
322 321 322 322 319 318 318 320 321 319 318 321 319 320 320 321 322 324 319 316 314 314 313 316 320 321 321 324 325 321 322 325 325 320 323 325 326 326 323 323 324 326 329 330
322 322 321 317 317 318 320 319 321 322 321 323 321 322 322 321 320 324 320 316 315 315 313 316 317 319 321 322 326 324 324 323 324 319 319 320 324 324 321 322 323 325 327 330
323 324 322 321 317 317 317 319 322 324 324 324 329 328 323 328 321 323 321 317 315 313 315 316 317 319 322 322 324 326 324 322 323 320 320 319 319 322 321 320 321 322 322 324
322 323 322 321 319 317 318 321 318 320 324 324 330 332 330 329 325 324 320 316 315 314 316 315 316 319 320 323 322 325 324 321 321 321 320 320 321 320 320 320 319 320 320 321
321 323 321 323 328 326 317 319 323 319 324 326 326 337 334 331 328 324 319 317 315 314 316 314 316 319 320 323 322 324 321 318 317 316 319 319 320 320 321 319 319 320 321 319
321 321 324 329 329 324 328 330 330 327 324 325 325 335 333 332 328 324 320 317 315 315 316 315 317 319 320 321 323 323 321 320 319 318 316 317 317 319 320 320 318 320 323 324
320 320 323 333 332 331 331 334 334 335 333 328 332 332 332 330 326 324 320 318 315 316 315 316 317 319 321 322 322 322 322 321 321 320 319 320 318 316 318 319 319 320 322 323
320 321 333 332 333 330 328 332 335 334 332 333 334 331 330 330 328 324 320 318 316 316 315 316 316 318 321 321 322 321 323 321 322 320 319 319 318 317 317 317 319 319 320 321
323 321 325 328 329 332 332 330 331 332 333 332 331 332 331 332 329 328 322 318 317 316 317 317 317 319 320 321 321 321 320 320 323 320 319 319 317 317 317 317 317 318 319 320
321 323 325 324 327 331 330 330 330 332 330 332 331 334 330 330 331 330 325 320 317 316 317 317 318 317 319 321 320 320 317 320 323 320 320 319 315 316 317 318 317 316 316 318
326 327 332 338 331 332 333 331 330 330 329 329 330 331 328 329 329 328 326 322 319 317 317 318 318 318 319 320 320 319 317 320 322 321 322 319 315 315 316 317 317 315 314 315
326 327 327 337 334 334 336 333 331 330 328 328 329 327 328 329 329 327 325 323 321 318 317 317 318 318 319 320 320 319 317 320 320 322 323 321 317 314 316 316 316 315 314 313
329 324 324 335 334 336 331 329 329 330 330 328 329 327 327 328 327 326 325 324 322 320 317 317 318 318 319 320 320 321 318 319 321 322 323 322 320 315 314 315 315 315 315 314
328 328 330 334 329 330 331 331 331 332 329 330 328 327 327 327 330 329 326 324 323 321 318 317 318 318 319 319 320 321 318 319 321 323 323 323 322 318 314 315 314 314 312 312
328 326 329 325 328 331 327 326 328 328 331 326 326 326 326 325 330 327 327 327 324 321 320 318 318 318 319 319 320 320 319 319 321 323 323 322 323 319 315 314 314 314 313 312
331 329 329 325 323 329 326 327 327 332 328 329 328 326 325 327 324 324 324 325 325 323 321 319 317 318 318 319 319 319 321 320 321 322 322 323 324 322 317 316 315 315 315 314
332 327 328 324 327 331 327 327 328 326 326 328 329 328 328 327 326 325 323 324 325 324 323 319 317 318 318 318 319 320 320 321 322 323 324 324 323 324 321 319 319 317 316 316
332 326 327 325 326 323 326 326 325 324 325 329 327 327 327 327 327 325 323 322 324 325 324 320 318 318 318 318 318 319 319 321 322 323 324 324 324 324 325 323 322 321 318 316
326 323 326 325 324 322 323 323 324 327 328 327 327 327 328 327 324 325 323 320 324 325 323 321 319 318 318 318 318 318 319 320 321 322 322 324 324 325 326 325 323 323 322 320
324 325 324 324 323 323 322 324 326 325 325 327 327 328 328 329 327 325 324 323 323 325 325 322 320 319 318 319 319 318 318 319 320 321 321 320 322 324 325 325 325 324 322 321
320 324 325 324 322 322 325 326 326 328 328 327 326 328 328 327 328 324 324 325 323 325 326 323 321 320 319 321 320 319 318 320 320 320 320 320 319 322 324 325 325 325 323 323

GFSCGP_925_thetae_003.txt.gz
Theta_e
320 319 319 319 318 318 319 320 321 320 318 317 316 315 315 317 316 314 313 313 314 314 315 319 322 323 322 321 319 318 322 323 323 324 325 325 326 325 326 325 325 324 323 324
321 320 320 319 319 319 318 319 319 318 318 316 317 317 315 316 317 315 313 313 313 313 314 317 320 322 322 321 322 319 322 323 324 324 325 325 326 326 326 326 325 325 326 324
322 322 321 320 321 320 319 319 319 319 319 316 316 316 318 317 317 316 313 313 312 312 314 315 317 319 322 319 319 320 316 318 322 325 326 326 326 326 326 326 322 325 327 327
320 320 321 321 321 319 319 318 318 320 318 317 316 317 318 318 318 318 314 312 312 312 313 315 315 316 323 322 319 319 317 316 316 324 325 325 326 327 327 327 327 325 326 327
322 320 321 321 322 320 321 320 318 319 319 317 319 318 318 319 320 322 314 313 311 311 312 315 315 317 321 323 320 320 319 322 320 322 326 327 325 326 328 326 327 323 324 326
321 319 320 321 321 320 320 317 318 317 317 318 317 318 318 321 321 322 316 314 312 311 312 315 317 318 319 324 321 321 323 324 320 323 325 325 323 322 323 325 328 328 328 327
321 321 320 319 319 317 316 315 316 319 320 322 320 320 320 319 319 322 320 315 313 312 311 315 314 317 318 322 323 320 323 323 319 321 324 326 321 321 323 324 324 328 329 330
322 323 321 319 319 319 315 315 317 320 320 320 324 325 325 321 324 319 321 316 313 312 311 314 315 317 319 320 324 324 322 322 319 319 321 321 320 320 320 320 321 328 329 329
322 322 320 319 317 315 316 318 316 318 320 322 323 325 328 325 325 322 317 314 314 313 312 315 315 317 318 320 321 325 323 321 319 320 319 319 321 319 319 319 319 321 325 328
320 322 320 320 320 319 315 316 318 316 322 323 323 328 329 329 327 325 317 315 314 312 313 314 314 316 318 321 321 324 323 320 321 319 320 320 319 317 318 319 319 319 323 325
317 319 321 323 323 320 321 323 323 317 319 322 322 327 327 329 328 326 319 315 314 313 315 314 313 317 319 320 321 323 323 318 317 318 319 319 320 320 317 319 321 319 320 321
317 318 321 327 329 327 320 321 324 323 326 325 325 329 325 329 330 326 321 316 314 314 315 313 314 317 317 320 320 323 321 318 315 315 316 316 318 319 318 318 321 322 320 322
316 317 321 325 331 328 328 331 329 327 328 332 333 330 326 330 325 322 318 316 314 314 313 312 313 315 317 318 321 323 321 319 318 318 319 318 315 317 318 318 320 322 320 322
320 317 320 322 322 328 330 332 330 327 329 332 331 329 327 329 329 325 318 315 314 315 314 314 314 314 318 319 320 322 321 320 320 320 319 318 316 315 316 318 319 320 320 320
318 320 320 321 321 327 327 330 331 328 326 329 328 329 329 328 329 328 321 314 315 314 315 315 315 315 318 319 319 321 319 321 321 320 319 318 316 316 316 316 318 319 319 319
319 321 328 332 323 326 327 327 330 328 328 328 329 330 329 329 329 328 322 317 316 315 316 316 316 316 318 318 319 320 319 320 321 320 319 318 315 315 316 316 315 317 318 318
324 323 327 333 329 332 333 330 329 329 328 328 329 327 326 327 330 328 327 319 317 316 316 316 316 317 318 319 320 319 319 316 321 320 320 318 314 315 316 316 314 314 315 316
327 326 327 335 332 335 328 328 328 329 328 325 325 325 325 326 327 327 323 322 320 317 316 316 317 317 318 319 320 320 318 316 321 320 320 319 314 314 315 316 315 313 313 313
325 326 328 337 327 329 330 330 330 329 329 327 326 325 325 325 326 325 325 322 321 318 316 316 317 317 318 318 320 319 317 315 320 320 321 320 316 313 315 315 315 314 313 312
324 324 329 323 331 335 327 326 327 325 330 326 327 325 325 325 327 327 325 324 323 321 318 316 317 317 318 318 319 318 316 315 318 320 321 321 318 315 314 315 315 315 314 313
328 326 328 322 323 326 324 327 323 328 326 325 326 325 323 325 324 323 322 324 322 320 319 317 317 317 318 318 318 318 316 315 316 318 320 321 319 318 313 315 314 314 313 311
328 326 327 324 326 330 325 327 327 324 324 327 325 322 324 324 323 322 325 322 322 320 319 317 316 317 317 318 318 318 317 317 317 318 320 321 320 320 315 313 314 314 313 312
329 325 325 324 325 322 325 326 324 320 324 325 324 324 324 324 324 323 324 323 322 321 321 318 316 317 316 318 318 318 318 318 317 318 320 321 320 321 319 314 314 314 315 314
326 322 325 324 323 322 324 322 322 321 322 326 324 323 324 325 325 325 323 323 323 320 321 319 317 316 316 317 318 318 318 319 318 319 320 321 321 322 323 320 316 316 316 316
325 323 323 323 322 320 320 321 321 322 324 325 325 325 325 324 326 324 324 321 321 319 322 321 317 316 316 316 317 318 318 319 319 319 320 321 322 322 323 324 321 319 319 319
322 324 326 324 319 320 321 319 320 322 323 324 324 325 327 326 325 323 321 322 323 322 323 321 319 318 317 317 317 317 318 318 320 320 320 321 321 322 323 323 324 323 320 319

GFSCGP_925_thetae_006.txt.gz
Theta_e
318 318 318 317 317 318 319 319 319 320 318 316 315 315 316 315 314 314 312 312 312 313 314 318 321 321 321 321 319 319 323 323 323 323 324 325 325 325 325 324 324 323 323 325
319 320 318 318 318 318 317 318 318 317 317 315 317 316 314 315 315 314 312 312 312 313 313 316 320 322 321 319 321 317 321 321 322 324 324 325 326 325 325 324 325 324 325 325
320 321 319 319 319 320 319 319 318 318 317 315 315 315 315 315 315 315 312 312 312 312 313 314 317 319 321 318 318 320 316 316 317 325 325 325 326 326 325 322 326 327 324 325
319 319 320 320 321 319 320 318 319 319 318 318 315 317 315 316 316 317 312 311 312 311 313 313 315 316 321 321 318 317 317 318 319 325 326 326 326 326 326 326 326 327 327 327
323 319 320 320 320 318 320 319 318 318 317 316 317 315 316 319 320 317 315 311 311 310 312 314 314 316 321 322 319 319 320 319 320 326 325 325 325 326 327 325 326 325 326 326
321 318 319 320 319 318 319 318 315 315 314 316 315 316 316 317 319 318 317 312 311 310 311 313 316 316 318 323 320 320 323 319 322 325 324 321 321 321 326 327 326 324 325 325
320 319 319 319 320 316 316 314 317 317 318 320 317 318 317 318 317 318 319 313 311 311 311 313 313 314 316 322 320 320 323 320 320 324 325 321 321 322 323 325 327 327 328 327
321 323 319 318 319 319 314 314 316 318 316 315 319 322 320 319 321 320 318 314 311 311 311 313 313 315 317 319 323 321 321 321 318 322 324 319 319 320 320 323 329 329 328 328
321 321 319 318 318 318 317 315 314 315 317 319 319 321 323 325 324 320 315 313 312 311 310 313 314 315 317 318 322 323 323 321 319 319 320 320 319 318 319 320 326 328 328 328
319 321 319 319 317 316 317 315 317 313 319 320 319 323 325 322 325 323 318 313 312 311 310 312 313 315 317 318 319 322 323 320 319 319 318 319 319 318 318 319 321 327 326 324
316 319 320 319 320 318 318 319 319 314 315 317 318 322 320 325 327 327 321 314 312 312 312 312 313 316 317 317 319 320 324 321 319 318 319 319 319 317 318 320 319 322 322 322
316 317 320 324 322 322 318 318 320 319 319 320 319 321 321 326 328 328 324 314 312 312 312 312 313 315 316 316 318 320 323 319 317 317 318 319 319 318 317 320 319 321 321 320
315 315 317 317 327 327 327 326 321 321 321 327 327 322 322 327 326 325 323 314 312 312 312 311 311 312 315 316 319 320 322 319 315 314 316 316 318 318 317 319 320 320 321 320
318 314 317 321 319 327 329 331 326 323 325 325 328 326 326 327 329 326 320 314 312 312 313 313 312 312 314 317 319 320 322 319 317 317 317 317 315 317 317 318 320 320 321 320
315 316 317 317 317 323 322 326 328 325 323 325 324 328 325 324 327 327 318 313 312 312 313 314 314 313 314 316 318 320 321 320 319 319 318 318 316 315 316 317 319 320 319 320
316 318 316 318 318 318 320 322 328 326 324 327 324 326 324 325 327 328 321 315 314 314 314 314 314 314 314 316 318 320 320 319 320 320 319 318 315 315 315 316 317 319 318 320
315 321 320 319 324 323 324 321 327 327 325 324 327 324 324 328 328 327 325 316 315 315 315 314 315 315 316 317 318 319 320 319 320 320 319 318 315 315 316 316 315 317 318 318
316 321 323 329 328 328 324 322 324 326 326 323 324 324 324 323 323 324 323 318 316 315 315 315 315 315 316 317 318 319 319 319 319 319 319 318 314 315 315 315 314 314 316 317
317 322 327 330 325 327 328 327 326 327 327 324 325 323 323 323 325 324 324 321 319 316 315 315 315 316 316 317 319 319 318 318 317 318 320 319 315 314 314 315 315 313 313 314
322 322 325 321 329 333 326 326 325 324 328 324 325 323 323 323 326 326 322 322 321 318 316 315 315 316 316 317 318 318 316 316 316 317 320 319 318 313 314 315 315 313 312 312
324 323 328 321 322 324 323 325 323 330 327 324 324 323 322 325 325 323 322 323 321 321 316 315 315 316 316 317 318 316 315 315 317 316 319 319 320 315 312 315 315 314 314 313
326 324 325 319 324 328 322 325 329 325 322 323 323 322 323 324 322 322 321 322 323 320 317 315 315 316 316 316 317 316 314 318 317 316 318 319 320 317 314 313 314 314 313 312
327 323 325 323 324 319 324 324 322 319 323 323 321 320 322 323 321 321 321 321 320 319 317 315 315 316 316 316 317 317 316 317 317 316 317 318 319 319 316 314 313 314 313 312
324 320 323 323 322 322 323 322 321 320 322 324 322 322 321 322 322 322 321 321 320 320 319 316 315 315 315 316 317 317 317 317 317 317 317 318 319 320 318 317 312 313 313 313
321 321 321 322 321 321 321 322 320 321 321 324 323 322 322 322 324 323 323 322 321 319 321 318 315 316 315 316 317 317 317 317 316 317 318 318 319 319 319 319 316 313 313 314
320 321 324 323 318 321 321 321 320 322 323 323 324 325 324 322 323 324 322 320 321 321 319 319 316 316 316 316 317 317 317 317 317 317 317 318 319 320 320 320 320 318 315 315

GFSCGP_925_thetae_009.txt.gz
Theta_e
322 324 326 325 323 322 323 323 324 322 321 320 321 322 321 321 319 320 319 318 318 319 318 320 322 323 323 323 322 318 322 320 319 325 325 325 326 325 326 324 322 324 324 325
322 326 325 323 322 321 322 323 324 323 320 320 322 322 322 321 321 321 321 319 319 319 318 320 322 323 324 322 319 321 317 316 317 324 325 324 324 324 324 324 325 324 324 325
326 325 321 322 322 323 323 324 324 324 321 319 320 322 323 322 319 319 320 320 319 319 319 321 322 323 323 322 320 321 316 316 319 325 326 325 326 326 325 326 325 325 326 326
325 322 322 323 324 324 326 323 323 323 323 325 320 325 323 323 324 322 321 319 319 319 319 321 322 321 324 323 319 317 320 318 323 325 327 326 328 328 326 326 326 327 327 326
325 323 324 324 324 323 325 322 323 323 324 322 322 322 322 322 324 325 326 321 319 318 319 321 321 320 322 323 322 320 322 319 324 325 324 325 326 328 327 327 327 327 327 326
325 322 324 324 323 323 323 322 321 321 322 325 323 322 322 323 324 325 325 322 319 318 318 320 320 319 321 324 323 321 324 319 323 324 324 323 323 326 326 327 325 325 326 326
324 325 322 323 324 321 323 325 326 327 327 325 322 322 323 324 325 323 324 324 319 318 318 321 321 319 320 323 323 323 324 322 320 323 325 321 320 323 326 326 327 325 326 326
327 327 323 322 325 324 324 326 325 328 325 324 322 324 322 325 326 326 324 323 319 318 318 321 321 320 320 322 324 323 323 323 318 322 323 319 319 321 323 328 328 328 327 326
326 325 322 322 322 324 321 323 323 325 322 323 323 325 326 328 328 326 322 319 318 318 319 321 321 320 320 321 325 325 324 323 319 319 320 320 318 318 320 327 328 327 325 328
324 325 323 322 322 320 323 321 323 321 325 327 323 326 325 326 327 330 324 322 319 318 319 320 321 320 320 321 322 325 325 323 321 319 318 319 318 318 319 324 327 326 325 324
324 324 324 322 324 324 321 323 323 323 322 326 327 325 327 328 333 335 331 324 320 319 319 320 321 320 320 321 321 323 325 322 322 319 319 319 317 317 319 319 322 322 321 321
323 326 326 324 323 324 324 324 325 325 327 324 325 325 324 331 333 334 331 323 320 319 319 319 320 320 320 320 321 322 325 323 321 319 319 319 319 316 320 319 321 320 320 322
323 328 327 324 329 329 324 323 325 326 327 327 326 326 327 331 333 331 329 323 319 319 318 319 320 320 320 319 320 322 324 323 318 317 318 317 318 317 319 319 320 320 320 320
324 327 327 326 324 326 329 328 324 326 326 325 326 325 329 331 332 330 330 324 321 319 319 319 319 320 320 319 320 322 323 322 318 317 318 317 317 317 317 320 320 320 320 320
325 326 323 323 322 325 325 326 328 327 325 326 326 328 327 329 331 332 330 324 321 320 320 320 320 320 320 320 320 322 323 322 319 319 320 319 314 316 317 319 320 320 320 320
321 325 323 322 321 322 322 322 325 327 325 326 325 326 328 329 331 331 328 323 322 321 321 320 320 320 320 320 320 321 323 322 321 321 321 320 315 314 316 317 319 319 319 320
322 327 324 324 322 321 324 322 322 326 326 325 326 327 328 331 332 332 330 325 324 323 321 321 321 320 319 319 320 321 322 322 321 322 321 320 316 316 316 316 317 318 319 320
325 328 327 327 325 329 325 323 322 323 325 327 326 326 330 329 332 331 331 327 327 324 323 321 321 320 320 319 320 321 321 321 321 322 321 320 317 316 317 316 317 317 318 319
315 322 335 336 332 325 326 328 323 324 326 328 328 327 328 328 329 330 329 329 329 325 324 323 320 320 320 319 320 321 321 320 321 322 321 320 317 316 317 317 315 315 316 317
319 321 321 334 334 330 325 330 326 326 329 328 329 330 329 329 330 329 331 329 328 326 323 322 320 319 320 320 320 321 320 320 321 321 321 321 318 316 317 318 315 313 314 315
320 323 323 324 330 330 328 329 327 331 329 332 330 331 330 330 331 332 330 330 330 328 323 322 320 320 320 320 320 321 321 320 321 320 320 321 319 316 316 315 315 314 312 313
320 321 322 326 325 325 325 329 331 333 332 331 331 331 331 333 331 329 329 329 329 328 324 321 320 320 320 320 320 321 321 321 320 320 320 322 321 316 316 315 315 314 314 314
324 319 321 322 322 328 329 332 332 333 332 329 331 330 330 331 329 328 329 328 328 329 326 321 320 321 320 320 320 321 321 320 320 320 321 322 322 319 315 316 316 317 316 315
314 324 326 325 322 325 328 328 328 327 328 328 328 329 328 330 328 328 327 327 328 328 326 321 321 321 321 320 320 321 321 320 319 320 322 322 323 322 319 316 316 316 317 316
311 319 325 327 326 325 325 328 327 326 326 328 327 327 328 328 328 327 328 328 327 327 325 321 321 321 321 320 320 320 320 319 319 321 322 322 322 322 321 319 316 315 316 316
319 316 322 326 324 327 328 327 326 327 326 327 328 328 328 328 328 329 329 328 328 327 325 325 321 321 321 320 320 320 320 319 320 321 321 322 321 322 321 320 319 315 314 313

GFSCGP_925_thetae_012.txt.gz
Theta_e
326 327 328 327 328 327 326 327 327 327 326 325 326 325 324 324 324 325 325 325 324 324 323 322 323 324 322 322 323 325 325 325 325 328 329 328 328 327 325 325 324 324 327 328
327 327 327 327 327 326 326 327 328 327 326 325 325 325 325 324 325 326 326 327 325 324 323 323 324 324 323 322 321 325 325 324 327 329 329 329 329 327 327 326 326 326 327 328
327 326 327 327 327 327 327 328 328 328 327 325 325 326 325 324 325 325 325 326 326 325 325 324 324 324 323 322 322 324 325 326 329 331 330 331 330 328 329 327 326 327 328 328
325 325 327 327 328 327 328 327 327 327 327 326 325 327 325 324 323 324 326 327 326 325 324 325 325 324 322 322 322 324 326 328 329 330 328 330 331 329 329 331 327 326 328 327
327 327 327 328 327 326 327 326 326 326 326 327 326 327 325 323 324 324 324 327 327 326 324 325 325 323 321 322 322 325 327 327 330 330 328 328 330 329 331 329 328 326 328 328
326 326 327 327 325 325 325 326 326 326 326 329 326 326 323 322 323 324 326 329 327 325 324 324 324 322 320 323 322 324 327 326 328 330 328 327 330 330 329 329 328 326 329 328
325 326 326 326 326 325 325 327 328 330 329 328 326 324 324 323 323 325 327 330 328 325 324 324 325 322 321 323 322 324 325 325 325 328 327 326 327 329 327 327 329 327 327 329
326 326 327 326 325 326 326 327 328 329 329 328 325 326 323 324 328 329 330 330 328 325 324 325 325 322 321 322 323 323 323 324 324 326 326 326 326 326 328 327 329 327 326 327
326 326 325 326 325 325 326 327 326 327 327 328 326 325 325 325 326 330 330 328 327 325 324 325 324 322 320 322 324 325 324 323 323 324 326 325 325 326 328 331 328 326 329 328
325 328 325 326 324 324 326 325 327 327 330 331 326 326 325 324 324 332 332 329 327 325 325 325 325 322 321 321 324 326 326 322 324 323 323 322 324 325 327 330 327 325 324 327
325 327 327 325 327 325 325 327 326 327 327 329 330 327 326 324 327 330 334 331 328 326 325 325 325 322 321 322 323 326 327 323 322 323 323 323 322 324 326 326 327 327 327 327
324 325 328 326 325 324 325 325 327 328 329 327 327 327 326 326 328 333 336 332 328 326 325 325 325 322 321 322 323 325 326 323 319 320 322 323 322 324 325 326 327 328 328 328
325 325 326 325 328 327 325 325 325 327 328 329 329 328 327 328 332 333 336 332 328 327 325 325 325 323 321 322 322 323 326 323 318 317 320 322 323 323 325 325 326 326 327 329
328 325 326 328 328 326 327 324 325 327 329 329 328 327 328 328 330 332 335 332 329 327 325 326 326 324 321 321 321 322 324 323 318 318 318 319 323 322 325 325 326 325 325 327
328 329 324 323 323 325 325 325 324 327 327 328 326 326 326 326 328 330 333 333 330 327 326 326 326 325 321 321 321 322 323 322 319 319 319 318 320 321 323 324 325 326 325 324
326 326 324 324 322 323 323 324 325 326 326 326 326 326 326 326 326 329 333 333 331 329 326 326 326 325 322 321 322 322 323 322 320 320 320 319 317 320 321 324 325 326 325 324
327 325 326 325 322 322 325 323 325 326 326 326 326 326 325 325 328 329 333 332 331 330 328 327 327 326 322 321 321 322 323 323 321 321 321 320 317 317 321 322 322 325 325 325
327 326 326 325 324 327 323 323 322 324 324 325 325 325 325 325 328 329 330 333 332 332 330 328 327 326 323 321 322 322 323 323 322 321 321 321 317 316 318 320 322 325 326 326
325 329 326 327 330 324 325 325 323 323 324 324 325 325 324 325 327 329 330 331 332 333 332 330 326 326 325 322 322 322 322 322 321 321 321 321 318 316 318 319 322 324 325 326
320 326 327 328 333 328 324 325 324 325 326 325 326 327 327 326 330 328 330 331 332 333 332 330 327 326 326 323 322 322 322 322 321 321 321 320 319 317 318 318 321 323 323 323
322 323 327 330 333 327 327 325 326 328 327 327 328 328 329 328 330 328 329 332 332 333 331 330 328 327 327 324 323 323 322 322 321 320 320 321 320 317 319 320 320 321 321 319
321 323 324 326 328 327 326 327 329 327 334 330 331 331 331 331 332 331 332 333 333 333 331 329 329 328 327 325 324 323 322 322 322 321 320 321 321 318 319 321 321 320 319 319
322 320 322 322 324 330 327 327 331 329 329 331 330 333 332 333 332 332 333 333 333 333 332 329 329 328 327 326 325 324 323 322 321 321 320 321 322 320 318 321 321 319 319 317
318 319 321 322 322 323 324 327 328 331 332 330 332 333 334 333 333 333 332 332 332 332 333 329 329 329 328 327 326 325 324 323 321 322 321 322 323 321 318 319 320 318 318 318
316 316 319 322 322 321 322 322 324 329 331 331 331 331 332 332 332 332 332 331 331 331 331 330 329 329 328 327 326 326 325 323 322 322 323 323 323 322 320 318 318 318 318 318
316 315 316 317 319 322 323 323 323 325 331 330 330 330 331 331 331 330 331 331 331 331 330 330 329 329 328 327 327 326 325 324 323 324 323 324 322 323 321 319 317 317 318 317

GFSCGP_925_thetae_015.txt.gz
Theta_e
324 327 327 328 328 328 329 330 329 330 329 329 329 329 329 328 327 326 325 327 328 328 326 325 326 326 325 324 325 328 328 329 330 331 331 330 330 329 330 327 328 328 328 329
326 327 326 326 327 328 330 330 329 329 329 329 330 329 328 326 326 326 326 327 328 329 327 326 326 327 326 324 323 328 329 329 332 334 333 332 331 330 331 330 329 329 329 330
325 327 326 326 327 329 330 330 329 331 330 330 330 329 328 327 327 326 325 326 328 330 328 327 327 327 327 324 324 327 329 332 333 333 333 334 333 332 332 329 329 330 329 329
324 326 326 326 328 329 330 328 328 329 330 331 328 330 328 327 326 325 326 327 328 330 329 328 328 328 327 324 325 327 330 332 332 332 331 333 334 331 332 332 327 329 331 331
323 325 326 327 328 328 329 328 328 328 329 330 328 329 328 327 326 325 326 326 330 330 329 328 328 328 326 323 326 327 330 330 333 332 330 332 331 332 333 332 326 328 330 330
322 324 325 327 327 328 328 327 327 328 329 330 328 329 328 327 325 325 326 328 330 330 329 328 327 327 324 323 325 327 329 329 332 332 330 331 332 330 329 331 328 329 330 332
322 323 326 326 328 328 328 328 330 331 332 331 328 328 328 326 325 325 326 328 332 330 329 328 328 327 324 324 324 327 328 327 329 330 329 329 330 330 330 331 328 328 330 330
324 325 326 328 329 328 327 328 328 331 332 331 329 329 328 326 325 326 329 333 333 330 328 328 328 326 323 324 323 325 326 326 328 328 329 328 331 333 330 331 330 329 330 329
325 326 325 327 327 328 328 328 327 329 328 329 330 329 328 325 324 327 331 332 332 330 328 328 328 326 323 324 324 325 325 326 326 328 329 328 330 331 330 329 328 329 331 331
326 327 326 326 327 327 327 327 328 328 332 333 330 329 328 326 326 330 333 333 331 329 328 328 328 326 322 324 325 325 325 324 325 326 326 326 329 331 332 331 329 325 326 328
324 328 328 327 329 328 326 326 328 329 329 331 332 330 329 327 326 328 333 333 331 329 328 328 328 326 323 323 325 326 326 323 325 325 326 325 327 329 329 330 330 331 330 326
325 328 330 328 328 328 327 326 328 330 331 329 331 331 328 327 327 328 332 333 330 329 328 328 328 326 323 323 325 326 326 322 322 324 325 324 326 328 329 330 331 331 331 330
327 329 332 331 329 328 328 326 327 330 331 331 331 330 328 328 327 329 330 332 331 329 328 328 328 326 322 324 324 325 326 323 320 320 324 324 324 327 329 329 329 332 332 332
329 330 331 332 332 328 328 326 326 328 332 330 330 329 329 329 328 328 331 332 332 330 328 328 329 327 322 324 323 324 325 324 319 319 320 324 323 325 327 328 328 329 331 332
331 334 328 328 327 327 327 326 326 327 328 330 330 329 329 328 329 328 331 332 332 331 329 329 329 327 323 323 323 323 325 324 319 319 319 322 324 324 326 328 328 326 327 330
332 333 328 327 326 326 328 327 326 325 326 327 329 329 328 327 327 328 329 333 332 332 329 329 329 328 325 323 323 323 324 323 320 320 319 320 322 322 323 327 328 327 326 325
327 330 332 329 325 325 328 327 327 326 325 326 328 328 328 327 327 327 329 331 332 332 331 329 329 329 324 323 323 323 324 323 321 321 321 319 320 321 323 324 326 326 326 326
332 333 329 330 327 329 325 325 325 326 326 326 327 327 328 328 327 327 327 330 332 332 332 330 330 329 325 323 323 324 324 324 322 321 322 319 317 320 322 322 324 325 327 326
329 334 328 331 331 326 325 324 325 325 326 327 328 327 327 326 327 327 328 328 332 332 332 331 329 328 326 324 323 324 324 324 322 322 322 321 317 318 320 323 324 327 327 328
327 329 335 330 330 327 326 324 324 325 328 326 326 326 327 326 326 327 329 329 331 332 332 333 330 329 328 325 323 324 324 324 323 322 322 321 319 318 319 322 325 327 328 328
325 330 332 328 332 326 325 325 325 328 326 330 326 326 327 328 327 328 328 329 330 332 332 332 331 330 331 327 325 325 324 324 323 322 322 322 320 319 319 321 324 326 325 324
323 328 327 328 326 327 326 326 328 327 329 328 327 327 328 328 328 328 329 330 332 332 332 333 332 330 331 328 326 325 325 324 323 322 322 322 321 319 321 322 323 324 323 323
325 324 326 326 327 329 327 328 328 328 329 329 329 329 329 329 329 328 329 332 332 333 333 332 333 331 330 330 327 327 326 324 323 322 322 322 322 320 321 323 323 322 322 321
321 323 326 328 326 327 327 327 329 328 328 328 330 330 331 331 330 330 331 333 333 333 334 332 333 332 332 331 329 328 326 324 323 323 322 322 323 321 321 323 323 321 320 320
321 322 323 324 324 325 325 327 327 328 329 331 332 332 331 331 331 332 332 332 332 334 333 332 332 333 332 332 330 328 328 325 324 325 324 324 324 322 321 322 321 320 319 319
317 320 322 324 323 324 323 324 324 324 327 329 330 330 330 331 331 332 332 332 332 332 332 333 332 332 332 332 331 330 328 327 326 326 326 324 324 323 321 321 321 319 320 318

GFSCGP_925_thetae_021.txt.gz
Theta_e
318 318 321 318 319 323 323 325 327 327 327 326 329 329 330 329 327 326 326 326 324 324 325 326 327 327 325 324 324 325 329 330 331 332 333 332 331 330 327 328 328 328 328 326
314 315 316 322 321 324 323 323 324 326 327 330 330 329 330 329 327 326 326 325 325 326 326 326 328 327 325 325 324 327 329 331 334 332 333 332 331 331 329 329 329 330 328 328
314 315 316 322 322 324 325 324 324 326 327 328 328 330 330 330 328 327 326 324 327 326 326 326 328 327 326 326 325 325 331 332 334 331 331 330 330 330 329 328 328 329 328 329
314 315 319 322 323 324 325 325 326 327 328 329 329 329 328 327 326 326 326 322 326 326 327 327 327 328 327 327 323 329 331 333 333 331 332 330 328 330 329 330 327 328 329 330
315 315 316 320 322 323 325 326 326 327 327 327 327 326 326 327 328 326 324 324 327 327 326 327 327 329 327 326 325 328 331 332 333 331 331 331 330 329 329 327 327 329 329 328
317 317 317 317 319 322 324 325 325 326 328 330 328 328 327 327 328 327 328 329 329 327 326 327 328 329 329 326 327 329 331 331 332 330 330 331 330 328 328 329 329 329 330 330
318 317 317 318 317 318 324 324 327 329 329 329 327 327 325 326 326 325 327 329 328 328 327 327 328 327 326 325 327 328 330 330 330 330 330 330 329 328 327 328 330 328 330 331
319 318 317 318 317 318 318 324 326 331 332 328 327 330 329 328 326 324 330 329 328 327 327 326 327 326 325 325 328 328 330 328 329 330 330 331 329 327 328 330 330 330 330 331
319 319 319 318 319 319 322 325 323 328 329 328 328 331 329 326 324 325 331 330 328 327 326 326 326 324 325 326 327 326 330 327 329 330 330 331 329 327 326 328 329 329 330 330
319 320 320 319 318 319 320 324 327 326 329 330 328 330 333 327 324 326 331 332 329 327 326 325 326 324 325 325 325 327 328 327 329 329 329 331 330 330 331 328 326 329 329 328
319 323 324 320 319 318 320 323 326 324 324 328 329 328 327 326 324 331 331 331 328 326 326 325 325 325 326 325 324 326 326 327 328 327 327 331 329 330 330 329 326 329 329 330
319 322 323 325 321 320 321 322 326 328 330 325 325 329 326 326 331 331 332 330 326 324 324 324 324 323 325 325 325 326 326 327 326 327 326 330 330 331 329 330 328 326 327 328
319 320 325 326 323 321 320 326 325 327 326 329 329 328 329 327 326 332 330 329 327 325 323 323 324 320 323 326 326 326 326 326 326 327 325 328 330 330 331 331 330 328 328 327
324 319 320 326 326 324 321 327 326 327 327 327 329 329 329 327 325 326 330 328 327 326 325 324 324 319 322 324 326 326 326 324 324 326 325 326 329 330 329 331 329 328 329 329
323 320 322 321 324 326 325 328 327 326 328 328 327 329 328 326 324 325 329 328 327 326 326 325 324 321 321 323 326 327 327 324 322 325 325 325 327 329 329 331 331 330 330 328
317 323 321 323 324 324 325 326 327 327 326 327 326 326 327 329 325 325 330 329 328 327 327 327 326 322 321 323 325 326 326 321 320 325 325 324 326 328 330 329 330 331 328 324
317 329 322 322 322 323 324 327 327 327 326 325 325 325 327 329 327 326 327 330 329 327 327 327 327 323 321 324 325 326 326 321 319 324 324 324 324 325 330 328 327 328 326 324
317 320 326 323 321 324 325 325 328 327 326 325 324 325 326 326 326 326 324 328 329 328 327 327 326 324 322 325 325 325 326 320 319 322 323 324 323 325 329 329 328 328 328 324
316 320 330 325 324 325 327 328 328 328 327 325 324 325 325 324 325 327 323 329 329 329 327 326 327 327 324 325 325 325 325 321 320 321 321 322 322 324 326 328 328 327 329 325
320 323 329 329 325 324 324 326 326 328 328 325 325 324 323 324 325 323 325 327 329 329 328 326 328 327 324 324 325 325 326 322 321 321 321 320 321 323 323 327 327 327 326 328
325 327 328 329 328 324 324 328 325 326 325 326 325 324 325 324 322 324 326 325 329 330 329 328 329 327 324 324 325 324 326 323 322 321 322 319 319 322 323 326 326 326 327 325
327 327 330 326 332 327 326 325 325 323 327 328 326 326 326 326 327 328 329 327 330 330 330 329 329 327 326 324 325 324 325 325 323 322 323 320 318 321 322 325 328 327 329 328
329 325 325 327 328 327 328 328 325 328 323 327 328 329 328 328 326 327 325 327 330 329 331 330 329 329 326 325 324 325 325 326 325 323 323 321 318 320 322 325 326 328 327 330
319 319 326 326 327 323 324 327 328 329 327 328 326 328 326 326 325 324 326 328 328 329 330 330 330 329 327 326 324 325 325 326 325 324 323 322 319 321 322 325 327 328 327 327
318 317 320 326 324 321 323 322 325 328 328 328 328 328 326 325 325 324 325 328 329 330 330 332 331 330 328 326 325 325 326 326 325 325 325 322 319 320 324 324 327 327 326 325
317 317 321 327 320 319 320 317 324 327 327 325 328 330 330 327 326 325 324 326 327 329 331 332 332 332 330 328 327 326 326 326 326 325 325 322 321 323 323 324 326 326 325 325

GFSCGP_925_thetae_024.txt.gz
Theta_e
314 320 318 323 320 319 322 321 322 323 323 325 325 326 326 326 323 322 322 322 323 322 323 325 324 324 324 324 324 325 328 329 330 332 332 332 331 331 329 328 328 328 328 328
314 314 316 316 317 317 318 321 322 322 323 323 324 326 326 327 326 324 325 323 322 324 325 325 324 323 323 324 324 328 329 330 333 332 330 331 331 330 330 328 328 329 327 326
313 315 315 315 319 318 318 320 323 323 322 322 324 327 328 328 327 326 325 323 324 324 325 326 324 323 323 323 325 328 330 331 333 331 331 329 328 329 329 328 327 328 326 327
313 314 316 317 316 319 321 320 322 324 324 325 325 328 325 326 325 324 323 322 324 324 324 326 323 322 323 325 325 329 330 332 333 331 330 330 328 328 328 329 327 327 328 329
313 314 314 314 314 316 321 321 322 325 325 324 325 325 324 324 325 324 322 323 323 323 324 326 324 323 326 323 327 330 330 332 332 331 331 330 330 329 328 328 328 328 328 328
313 314 314 314 315 316 321 322 322 323 324 326 325 325 327 324 326 325 325 323 324 324 324 325 325 325 325 324 329 330 330 332 332 329 330 329 327 328 328 328 329 328 329 329
315 315 315 315 314 316 320 320 323 324 326 328 324 327 327 325 325 323 327 327 325 325 326 326 326 324 324 326 328 330 330 330 330 330 329 329 328 327 328 329 329 329 329 330
315 317 316 316 315 315 316 319 324 326 328 327 325 328 326 323 324 324 327 326 326 326 325 326 325 324 323 325 328 330 329 329 329 329 329 328 327 326 327 330 330 329 330 330
315 317 318 317 316 316 315 316 317 322 326 325 325 326 327 324 329 328 327 327 327 325 325 326 323 322 322 326 327 329 329 328 329 329 329 329 328 325 326 326 329 329 330 330
316 317 318 317 316 316 315 318 320 321 326 328 327 328 328 324 330 329 329 327 326 324 324 325 324 321 322 326 327 327 329 327 329 329 329 330 329 330 329 327 329 329 329 329
315 317 320 317 316 316 314 315 317 321 322 326 326 327 322 322 323 331 328 327 325 325 324 325 323 322 323 326 324 327 328 328 328 328 329 330 330 330 329 326 329 328 329 329
316 314 317 318 317 316 315 315 316 323 325 323 324 325 323 323 325 329 329 327 325 324 324 324 321 321 322 323 324 327 326 327 328 327 329 329 330 329 329 326 327 329 329 329
319 316 318 319 319 319 316 316 318 320 322 324 326 325 323 326 328 328 329 326 325 324 323 323 320 321 322 322 324 325 326 326 326 326 328 330 330 330 330 328 326 327 327 329
314 319 317 319 322 320 319 317 320 323 325 325 326 325 327 326 330 328 328 326 325 324 324 323 321 321 322 322 324 325 325 326 326 326 326 329 329 329 330 328 328 328 328 328
310 320 317 317 319 321 321 319 320 326 324 327 325 324 326 323 329 329 327 325 324 324 324 324 321 320 320 322 324 325 326 325 326 325 325 329 329 329 330 330 328 330 329 329
310 316 320 318 317 318 319 321 319 324 325 323 325 326 323 323 327 329 327 326 325 325 325 324 322 320 319 323 323 325 325 324 325 325 324 328 327 329 329 331 330 327 328 330
311 316 320 319 318 318 318 319 322 325 325 324 324 322 322 324 322 328 327 326 326 325 325 324 323 320 320 321 324 324 326 323 325 325 324 326 326 328 330 329 331 325 327 327
311 313 315 322 318 322 321 320 322 325 324 325 322 321 324 324 324 323 327 326 326 325 325 324 323 321 321 321 323 325 325 320 324 324 324 324 325 327 329 327 329 325 323 324
310 312 318 324 320 320 319 322 322 324 324 322 323 321 322 322 322 323 327 326 326 325 324 324 324 322 321 321 323 324 323 319 322 323 323 323 324 326 329 328 327 325 323 322
311 312 322 326 320 322 319 324 322 323 326 322 322 321 321 321 324 322 323 327 326 325 324 324 325 322 321 321 323 323 320 318 320 322 322 322 323 325 327 328 328 326 325 321
320 319 321 323 327 322 320 322 324 327 326 322 322 321 320 321 322 321 320 326 326 325 324 325 324 322 321 322 323 322 319 318 319 321 321 322 322 323 323 327 327 327 326 323
322 327 326 324 326 325 323 323 324 322 321 323 322 319 320 320 320 320 321 326 326 325 324 325 325 323 321 322 323 323 320 319 319 320 320 320 320 322 322 325 326 326 326 326
319 317 322 323 325 320 320 319 318 324 321 325 321 321 321 320 322 322 323 324 326 326 325 326 326 323 321 322 323 323 322 320 320 320 320 320 319 321 322 323 326 326 326 326
314 314 317 319 322 317 318 316 316 321 325 325 321 323 321 322 322 322 322 324 327 327 326 326 326 323 322 322 322 322 323 322 321 320 320 319 319 321 322 324 325 325 326 328
314 316 316 319 318 316 317 315 315 314 321 327 326 324 323 321 321 321 321 325 326 328 327 327 326 324 323 322 322 322 323 324 322 320 320 318 318 321 322 324 326 326 325 325
316 315 316 319 316 315 316 314 315 314 315 324 328 327 326 325 321 320 321 325 326 328 327 327 327 325 324 322 322 323 324 324 323 321 321 319 317 320 322 324 325 325 324 324

GFSCGP_925_thetae_027.txt.gz
Theta_e
310 313 321 320 319 318 316 319 320 320 321 322 322 322 322 323 322 322 320 319 319 320 320 321 320 321 325 325 326 326 327 328 329 331 330 331 330 330 330 329 328 328 328 327
312 312 316 321 321 320 319 319 320 321 321 321 321 321 322 322 322 323 324 321 320 323 324 322 320 322 323 325 325 327 328 329 332 330 329 330 329 330 329 329 328 326 327 328
310 313 314 319 318 322 322 320 319 320 321 321 320 322 321 323 324 324 323 322 322 322 324 322 321 320 323 324 325 328 328 330 332 330 330 329 328 328 328 328 328 327 326 326
309 310 313 315 317 316 317 317 318 319 321 323 321 325 323 323 323 323 323 320 319 322 324 323 321 319 322 324 326 327 329 332 332 330 330 329 328 327 328 328 327 327 328 328
311 311 312 314 314 314 317 318 319 319 321 322 324 324 322 322 324 322 321 319 322 321 324 323 321 320 322 324 326 329 330 332 332 331 330 329 329 328 327 327 328 328 327 328
310 312 312 313 315 315 317 317 319 319 320 324 323 323 323 323 323 323 323 321 322 322 323 321 321 322 323 324 328 329 330 332 331 329 329 327 326 327 327 328 328 328 329 328
312 312 313 313 313 313 314 312 316 321 323 326 322 323 325 323 322 322 322 323 323 323 324 323 322 321 320 325 329 329 330 330 330 329 328 326 327 326 328 329 329 329 328 329
315 314 313 314 314 314 313 314 320 324 326 325 323 326 325 322 322 322 322 323 323 324 324 323 322 322 321 327 328 329 329 329 329 329 328 326 326 326 327 327 329 329 330 329
315 314 315 314 314 313 313 317 317 320 323 323 323 323 323 324 326 325 326 325 324 324 324 324 322 321 322 325 328 329 328 328 329 329 329 327 327 326 325 327 328 329 329 329
314 314 315 315 314 313 312 313 317 315 323 327 325 326 326 324 327 327 327 325 324 323 323 323 323 320 322 325 327 328 328 327 329 329 329 329 329 330 328 327 328 328 329 329
314 314 317 315 315 315 313 314 313 314 317 323 324 324 322 323 326 327 325 324 324 323 324 324 323 320 322 324 326 327 328 327 328 328 329 329 329 329 327 327 328 328 329 329
315 312 315 316 315 316 315 314 313 317 319 318 321 323 321 321 324 326 325 324 323 322 323 323 322 318 320 323 324 325 328 327 328 328 328 329 330 328 327 326 329 328 329 329
315 316 316 315 318 315 315 314 314 313 318 322 322 323 319 320 319 326 324 324 323 322 322 321 318 319 319 321 322 326 327 327 327 327 329 329 330 329 328 326 327 327 329 329
310 315 318 316 317 317 315 315 313 314 315 318 323 323 325 324 326 327 326 324 323 323 324 322 320 320 320 321 323 325 325 326 326 325 329 329 329 329 328 327 327 327 328 329
309 313 318 319 315 316 319 315 315 316 316 318 319 322 322 323 324 327 325 323 323 323 323 323 321 320 319 320 322 324 325 325 325 325 328 329 329 328 328 328 329 327 328 328
308 310 316 322 318 316 316 318 315 315 317 319 322 321 320 322 325 327 326 325 325 324 324 323 321 320 319 320 321 323 324 325 325 324 326 328 328 329 330 328 328 327 329 329
310 311 311 321 320 316 316 316 317 317 319 320 322 322 320 322 327 327 326 325 325 324 324 324 322 320 320 321 322 323 324 325 325 324 324 327 328 329 329 330 326 327 329 327
310 310 311 315 317 318 317 316 316 317 318 321 321 320 322 322 326 326 326 325 325 324 324 323 322 319 320 321 322 323 324 324 324 324 323 326 327 328 329 330 326 326 326 326
309 308 311 320 318 317 318 319 316 316 318 320 322 319 322 322 319 322 325 325 325 323 323 323 323 320 319 321 322 323 322 323 323 323 323 326 325 328 327 330 325 323 323 327
315 309 311 321 319 319 320 320 319 320 320 320 322 319 321 321 324 322 322 324 324 323 322 322 322 320 319 319 322 322 319 320 322 323 323 323 324 328 327 327 324 323 322 323
313 312 313 316 320 323 320 320 321 322 321 321 320 319 318 324 324 322 321 325 324 322 321 323 322 320 319 319 322 322 319 318 321 322 323 322 323 326 328 327 325 323 322 321
315 320 318 318 323 325 318 319 322 318 317 323 319 319 317 321 318 318 322 325 324 322 321 322 322 320 319 320 321 321 319 319 320 321 322 321 322 323 327 328 327 325 322 320
316 316 318 319 324 317 315 315 314 313 314 317 325 321 319 318 317 317 320 324 324 323 322 323 322 320 319 320 321 321 320 319 319 320 321 321 321 322 324 327 327 326 324 322
313 314 318 317 321 317 315 314 313 313 314 314 323 325 317 318 318 318 319 323 324 323 322 323 323 319 319 320 321 322 320 319 318 318 319 320 321 321 322 325 326 326 325 324
311 315 315 315 318 315 315 313 313 313 314 314 315 325 323 318 319 320 320 323 324 324 323 324 323 320 320 321 321 322 321 319 318 318 318 318 319 320 321 322 325 325 325 325
312 313 315 318 315 315 314 313 312 313 313 313 315 325 326 324 319 318 321 323 324 324 323 324 323 322 321 321 321 321 321 320 319 317 317 317 317 319 320 322 323 325 324 324

GFSCGP_925_thetae_030.txt.gz
Theta_e
307 310 316 314 314 313 313 314 314 316 318 318 317 318 320 320 319 319 319 319 319 317 317 317 318 319 321 324 326 326 326 327 328 329 329 330 329 329 329 329 328 327 327 328
309 310 311 315 315 315 316 315 316 317 319 320 319 319 319 319 319 319 320 320 320 319 322 319 318 320 322 324 325 326 326 327 329 329 328 329 328 328 328 329 328 327 327 327
308 310 311 316 317 319 319 318 317 318 319 319 319 319 319 320 319 320 321 320 320 319 321 319 319 320 322 323 325 326 327 328 331 329 329 328 327 327 327 327 327 326 327 325
307 309 311 314 318 319 319 319 320 321 318 318 319 322 319 320 321 321 320 318 319 321 322 319 319 319 322 324 325 326 327 330 331 330 329 329 328 327 327 327 326 327 327 327
308 308 309 312 316 319 318 318 321 319 317 317 318 321 320 319 321 321 320 319 317 320 321 320 319 321 322 324 326 327 329 331 331 330 329 328 327 326 326 326 327 327 327 328
309 311 309 311 313 317 316 316 316 317 316 320 319 321 321 321 321 321 320 321 321 322 320 319 319 320 321 324 326 328 330 331 331 329 328 326 326 326 326 327 327 327 328 328
310 310 311 311 312 313 314 313 314 316 319 321 319 321 320 320 320 321 321 319 321 322 320 320 320 319 320 325 327 329 329 330 330 328 327 325 325 325 327 328 328 329 328 328
314 312 311 312 311 312 313 313 315 317 321 323 320 324 322 320 321 320 320 320 321 322 320 321 320 319 321 325 328 328 328 329 329 328 327 325 325 325 326 326 328 328 329 329
314 315 313 313 312 313 312 314 313 316 320 322 322 321 320 321 321 321 321 323 322 322 321 320 320 319 321 326 327 327 328 328 328 328 328 326 326 327 326 327 328 329 329 328
312 314 314 313 313 312 312 313 314 314 321 325 323 324 323 323 323 325 325 323 322 321 321 321 321 319 322 326 327 327 328 327 328 328 328 328 329 329 327 327 327 328 328 328
313 312 314 313 313 312 310 314 312 312 316 321 323 323 319 322 322 324 324 322 322 322 322 322 321 320 322 325 326 327 327 326 328 328 328 328 329 328 326 327 328 328 328 328
311 312 314 314 312 313 312 310 311 316 316 316 319 321 319 321 320 322 323 322 321 321 322 322 320 318 320 323 325 326 326 326 328 327 328 328 329 327 325 328 328 328 328 328
313 314 315 314 315 313 313 312 312 313 312 317 317 318 318 319 320 322 322 322 321 321 321 320 318 318 319 321 323 325 326 326 327 327 328 329 328 328 326 326 326 328 328 328
311 311 316 316 315 313 314 313 312 310 312 316 318 318 321 322 321 321 323 322 321 322 323 321 319 319 319 320 322 323 325 326 327 326 328 329 329 328 326 326 327 328 328 328
310 310 314 314 316 317 315 314 314 313 313 314 318 320 320 320 321 322 322 321 322 322 323 322 321 319 317 319 321 323 326 325 326 325 328 328 328 328 327 327 327 327 328 329
311 310 311 312 315 317 318 314 314 314 313 313 315 315 317 319 321 325 324 323 324 323 324 323 321 320 318 319 321 322 324 325 325 324 327 328 328 328 327 328 328 328 328 328
312 310 309 311 311 315 318 317 315 314 314 314 316 316 318 322 323 324 324 324 324 324 323 323 322 321 320 319 321 322 324 324 324 324 326 327 327 329 329 328 325 327 328 328
311 311 309 310 315 320 317 315 315 314 314 313 314 315 318 319 321 322 323 324 324 323 323 323 322 320 320 320 320 322 323 323 324 323 324 327 327 328 329 328 324 326 325 328
310 312 309 314 321 317 317 319 318 314 315 315 316 316 318 319 322 324 323 324 324 323 323 322 322 320 320 320 321 322 322 322 323 323 323 326 327 327 329 329 324 324 324 327
311 311 311 316 323 320 321 318 317 318 315 316 319 322 317 319 324 324 321 323 322 321 322 321 322 319 319 320 321 321 321 321 322 323 323 325 326 328 327 329 324 322 324 326
314 314 313 314 315 319 319 317 316 317 316 314 315 318 322 320 322 323 321 323 323 321 320 321 321 319 319 320 321 320 320 321 323 323 323 323 324 327 326 329 324 322 322 324
316 318 314 314 318 324 317 316 317 315 313 314 314 314 318 320 320 319 320 324 323 320 319 321 321 319 318 320 321 320 319 322 323 323 323 323 323 327 326 326 323 322 321 322
316 315 317 318 322 316 314 315 313 311 312 313 313 314 314 324 319 317 320 321 323 321 321 321 321 318 317 319 321 321 320 321 322 322 322 322 322 324 327 327 324 322 320 319
313 312 316 316 317 316 314 314 312 311 312 312 311 313 319 324 319 316 318 321 322 321 321 321 320 318 318 319 320 321 320 320 321 321 321 321 321 322 325 326 326 324 321 320
310 313 316 315 315 313 314 312 312 313 312 311 311 312 323 324 316 315 317 320 322 321 321 321 321 319 319 319 320 320 320 320 319 320 319 320 320 321 322 324 326 326 325 324
311 312 315 315 311 312 312 312 312 312 311 311 311 313 314 322 323 316 316 319 322 321 321 321 321 320 319 319 320 320 320 319 319 318 317 318 319 319 321 322 324 325 325 325

GFSCGP_925_thetae_033.txt.gz
Theta_e
310 311 316 315 317 318 321 320 321 319 317 318 320 322 322 322 322 323 324 325 326 327 328 322 322 323 324 326 327 327 328 326 327 328 330 332 331 331 331 331 329 329 329 328
309 312 314 315 315 315 315 316 317 317 317 319 321 322 322 322 321 323 324 325 326 327 327 325 322 324 325 326 328 329 329 326 327 329 331 331 331 330 330 329 329 328 327 328
312 313 312 313 316 315 315 316 317 317 321 321 321 322 321 322 323 322 324 326 327 328 328 327 325 325 326 327 328 329 329 326 329 329 328 328 327 328 329 329 329 328 327 328
311 312 311 312 314 316 318 316 316 317 319 322 321 325 323 321 321 324 327 328 327 325 328 327 326 326 326 327 328 329 328 329 331 329 330 331 331 331 330 329 329 328 327 328
311 310 311 312 313 316 317 318 318 318 320 322 321 321 322 323 321 322 323 328 327 327 328 327 326 326 326 327 328 329 330 332 332 330 330 331 330 329 329 329 329 328 328 328
312 310 311 312 313 315 317 318 321 321 321 323 322 320 323 321 321 322 324 327 327 328 327 326 325 326 327 327 328 329 331 333 331 331 330 329 329 329 329 330 331 329 329 329
312 311 311 311 313 315 318 319 322 322 323 325 321 322 322 322 323 325 326 327 328 329 327 326 327 328 327 327 329 330 332 332 332 331 330 328 328 328 330 329 330 327 329 331
316 315 312 311 312 315 318 320 321 325 325 322 321 320 320 323 323 324 325 327 328 329 327 326 327 327 327 328 329 330 331 332 331 330 329 328 327 328 329 329 329 330 330 331
317 316 314 312 313 314 317 319 318 319 322 321 322 324 325 326 326 327 326 326 329 330 328 327 327 326 327 328 330 330 330 331 331 330 329 329 328 329 328 328 329 330 329 330
315 317 315 313 312 315 317 318 317 318 319 320 324 326 323 327 328 328 329 329 330 329 328 326 326 326 327 328 330 329 330 330 330 330 330 330 330 330 327 329 330 330 330 330
314 317 316 314 313 314 314 317 317 317 319 318 318 321 329 328 330 330 331 331 330 330 328 327 327 326 327 329 328 329 329 329 330 330 330 331 331 330 328 330 330 330 330 330
313 318 318 316 315 315 315 316 318 317 320 318 320 320 323 328 327 329 331 330 329 329 328 327 327 326 326 328 328 329 329 329 330 330 330 331 330 328 329 330 330 331 330 330
313 318 318 318 316 315 317 315 317 318 321 319 318 321 323 324 326 327 330 329 328 329 329 328 327 327 326 328 327 328 329 329 329 329 330 331 330 329 329 329 330 331 330 330
311 316 318 318 317 318 316 315 316 318 319 318 318 318 321 324 324 327 329 330 329 329 329 328 328 328 327 327 326 327 328 329 328 328 330 331 331 329 329 329 330 331 331 330
312 314 314 315 314 316 319 316 315 316 317 317 319 319 320 323 322 327 329 329 329 330 329 329 329 328 327 326 326 326 327 328 328 328 329 331 331 329 329 329 330 331 331 330
312 315 313 315 315 316 318 319 316 315 316 316 318 320 321 321 324 327 329 329 330 330 330 329 329 328 328 327 326 326 326 328 327 328 329 330 329 329 330 330 330 330 331 328
312 313 315 318 314 316 318 318 319 317 316 316 317 318 319 321 323 325 331 330 330 330 330 329 329 328 327 327 326 326 326 327 327 327 328 329 329 330 329 329 328 330 330 329
313 313 314 315 317 320 318 321 319 318 317 317 317 318 318 319 321 325 328 331 331 331 330 330 329 328 327 326 326 326 326 326 326 326 327 329 329 331 331 327 328 328 330 330
312 314 315 315 321 321 321 322 322 320 321 320 323 321 320 321 322 323 326 329 331 331 331 331 328 327 327 326 326 326 325 326 326 326 326 328 329 330 331 327 327 326 328 328
312 312 315 317 320 321 324 320 318 320 323 319 319 321 322 325 320 321 325 328 330 330 331 330 328 327 327 326 325 325 325 326 326 326 325 327 328 329 331 328 326 325 328 327
316 317 316 317 319 320 320 318 317 326 322 317 317 318 320 323 325 328 324 329 330 330 330 328 327 327 327 326 325 326 325 325 325 325 325 326 327 329 330 329 325 325 326 326
318 317 316 317 319 324 318 318 321 318 316 316 316 317 318 319 320 322 324 326 330 329 328 327 327 326 326 325 325 326 326 325 326 325 325 325 327 328 329 329 325 325 326 325
317 316 320 319 321 315 315 317 316 314 315 315 316 315 316 319 323 326 328 327 328 329 328 327 327 326 325 325 326 327 326 325 325 325 325 325 326 327 328 329 325 324 324 324
313 313 316 317 317 315 314 313 313 313 315 314 314 315 316 319 321 328 330 328 326 329 328 327 327 326 325 325 326 327 326 324 325 326 326 325 325 326 328 328 326 325 324 323
310 311 316 315 314 313 315 312 311 312 313 314 314 315 317 318 320 324 328 325 324 328 327 327 328 327 325 325 325 326 325 324 325 326 326 325 324 324 327 328 328 326 325 324
311 313 315 315 312 311 311 311 312 312 313 314 314 315 316 318 322 324 328 322 324 327 327 327 327 326 325 324 325 325 324 324 325 326 325 324 323 323 324 326 326 326 326 324

GFSCGP_925_thetae_036.txt.gz
Theta_e
313 313 317 319 321 323 325 327 328 327 326 325 326 326 326 326 327 328 328 327 326 329 329 328 330 329 330 330 331 331 331 333 333 332 331 330 331 332 332 332 333 333 333 332
315 314 317 318 319 320 323 325 327 327 326 327 325 325 328 328 328 328 327 326 328 330 331 331 331 330 330 331 332 333 333 334 333 332 331 332 333 331 332 332 333 333 332 331
316 316 314 316 319 320 321 323 325 326 325 325 324 325 327 328 328 327 326 326 325 329 332 333 332 331 331 332 333 333 334 334 333 332 334 334 333 333 332 333 333 333 331 331
315 316 316 315 316 319 321 320 320 320 322 324 323 329 329 329 328 328 327 326 327 331 332 334 333 333 332 332 332 333 334 334 334 334 333 333 332 332 333 332 332 332 331 331
315 315 316 317 316 317 318 318 319 320 321 323 323 326 328 328 328 328 327 326 328 332 333 334 333 332 331 332 332 333 334 333 335 334 333 334 333 333 332 332 332 333 332 331
315 314 315 317 316 316 317 318 320 321 322 326 325 327 329 330 330 329 327 325 330 334 334 333 332 331 331 331 332 333 334 335 335 335 335 334 334 333 332 333 332 333 332 332
316 315 314 315 316 316 317 320 324 326 328 329 327 329 330 328 327 325 325 327 333 334 334 333 333 333 332 331 332 332 334 334 334 334 334 332 333 333 333 332 332 332 332 332
317 318 315 314 315 317 318 321 322 326 331 330 328 330 329 326 326 326 325 325 332 334 334 334 333 333 331 331 332 332 333 333 333 333 332 331 333 332 332 332 332 332 332 333
317 319 316 315 315 317 318 323 322 327 328 326 330 328 325 324 325 324 327 326 332 335 334 334 333 332 331 332 332 332 331 331 332 332 332 332 333 333 332 333 333 333 333 332
317 320 319 316 315 317 320 320 324 324 329 330 326 326 326 326 326 325 328 330 333 335 334 333 333 332 331 332 332 331 330 331 332 332 332 333 333 333 331 332 332 333 333 332
316 318 321 318 316 317 318 321 322 323 324 328 329 326 324 327 325 328 331 332 336 335 334 333 332 331 332 332 332 330 330 331 332 332 333 334 333 332 331 332 332 333 333 332
315 319 323 319 318 318 318 319 322 323 325 324 325 323 327 328 330 330 330 333 336 335 333 332 332 332 332 332 331 329 329 330 331 331 333 334 332 332 332 332 332 332 332 332
313 319 322 321 319 317 319 319 321 322 325 325 324 321 321 328 329 332 334 335 335 334 333 333 332 332 332 332 329 328 329 329 330 330 332 333 333 332 332 332 332 332 332 332
312 317 320 322 320 319 319 318 320 322 323 323 322 320 323 328 329 332 334 334 334 335 334 333 333 332 332 331 328 327 328 328 329 330 331 333 333 333 332 332 332 332 331 331
315 317 318 319 319 318 321 318 318 320 321 322 320 320 320 325 327 330 331 334 334 335 334 334 333 332 332 331 327 327 327 328 328 329 330 333 332 332 332 332 332 332 331 330
315 320 317 319 317 318 320 320 319 319 320 320 320 320 320 321 322 322 331 333 334 335 334 334 333 333 333 330 327 327 326 327 328 329 329 332 332 332 332 332 332 332 331 331
315 317 319 318 317 319 321 320 320 319 319 319 320 321 320 321 323 323 327 331 333 335 334 334 333 333 333 330 327 327 326 326 327 328 329 330 331 331 332 331 331 332 332 331
314 317 317 320 318 323 324 323 320 320 319 319 319 320 321 321 322 323 325 330 333 334 335 335 334 334 332 329 327 326 326 326 326 327 328 329 331 331 332 329 330 332 332 331
312 316 321 321 321 319 323 325 325 322 325 324 325 323 323 323 324 324 324 324 329 334 335 335 333 332 332 329 327 327 326 325 325 326 327 327 330 332 331 329 329 331 332 331
313 313 318 321 324 320 327 323 321 323 328 322 323 324 325 325 324 323 331 331 330 332 335 335 333 332 332 330 328 327 326 325 324 325 326 326 329 332 331 329 328 330 331 332
316 316 317 319 324 326 323 322 321 328 328 322 322 324 325 327 327 328 327 328 329 332 334 334 333 333 333 331 329 327 326 326 324 323 325 326 328 331 333 331 329 329 328 331
316 317 316 317 321 327 320 322 327 322 321 321 322 323 323 324 325 326 327 329 329 331 333 334 334 333 333 331 330 327 326 326 324 324 324 325 326 330 332 331 329 327 328 329
321 319 320 320 324 317 317 318 317 317 319 320 320 321 322 323 325 326 328 331 333 330 333 333 333 333 333 331 330 329 327 326 325 325 324 325 326 327 331 332 329 328 327 325
316 315 318 320 316 315 315 316 315 316 318 318 319 320 321 324 325 327 328 330 333 330 332 332 333 334 334 332 330 329 327 325 325 326 326 326 326 326 329 331 329 327 325 322
311 311 313 318 316 315 316 315 315 315 316 317 318 319 320 322 325 327 329 330 332 330 331 332 333 334 333 332 331 330 329 325 326 326 327 327 326 326 327 329 330 328 327 324
312 313 315 318 315 315 315 313 313 314 315 314 317 319 319 321 324 326 331 332 332 329 330 332 332 333 332 331 331 330 329 327 326 327 327 328 326 326 325 326 328 328 328 326

GFSCGP_925_thetae_042.txt.gz
Theta_e
314 316 317 318 318 320 323 325 325 327 327 328 330 330 331 332 332 332 332 331 332 333 332 331 331 334 336 336 340 342 340 339 346 346 344 341 338 336 336 334 335 334 335 335
314 318 318 317 318 318 320 323 325 326 324 326 329 331 332 332 332 332 332 332 332 333 334 335 335 338 337 339 340 340 340 341 344 343 340 338 336 336 335 335 334 334 335 335
315 316 316 318 317 318 320 322 324 324 323 325 328 330 332 331 332 332 332 332 332 332 330 333 339 342 339 340 340 340 340 344 341 340 337 338 337 336 336 334 333 336 335 334
313 315 314 317 319 318 321 319 320 322 323 328 326 332 334 332 333 333 332 332 331 331 331 335 341 344 341 340 340 340 341 341 339 339 338 338 337 335 335 335 335 336 336 335
309 312 316 315 318 319 320 319 320 321 323 326 326 328 330 330 332 332 331 331 331 331 334 335 343 342 340 340 341 341 342 340 339 335 338 338 337 334 332 333 335 335 335 333
309 310 312 317 316 317 319 319 319 321 323 327 328 328 329 329 330 329 329 329 330 331 333 340 342 340 340 340 340 342 341 341 339 338 338 338 336 335 337 336 335 335 334 334
312 311 310 312 315 317 318 323 324 324 325 327 326 327 329 328 329 329 329 330 331 333 334 342 342 341 340 340 341 341 340 341 339 338 337 336 336 337 336 336 334 336 334 334
320 319 310 311 314 318 318 323 323 324 325 325 323 327 327 328 329 329 329 331 333 334 341 341 341 341 339 340 340 339 340 340 339 337 336 335 336 336 336 334 335 336 333 334
317 319 316 311 314 316 319 320 322 324 323 324 325 327 328 329 330 330 331 333 334 341 341 341 340 340 339 339 339 339 340 339 337 336 334 334 335 335 336 335 335 336 337 335
313 317 316 317 312 315 318 319 322 324 325 328 325 328 330 333 333 331 332 333 334 341 341 340 340 340 339 339 339 339 339 338 335 335 334 334 332 333 334 334 333 337 334 333
313 316 317 318 315 315 319 319 321 325 324 327 329 328 335 333 330 331 334 332 335 341 340 340 339 339 338 338 338 339 338 335 334 333 334 333 334 334 333 333 334 335 335 333
312 318 322 319 318 315 319 319 321 325 327 325 327 328 331 330 329 331 332 331 338 340 340 339 339 339 338 338 338 337 334 334 334 333 334 332 334 333 335 333 334 334 335 333
312 318 320 319 319 321 322 320 322 325 329 329 327 329 330 327 329 329 333 329 340 339 339 339 338 338 339 338 336 334 333 333 332 333 332 334 334 335 334 334 333 333 333 333
313 314 316 323 322 323 327 324 321 324 327 326 328 327 327 328 331 331 334 339 339 339 340 338 338 339 338 337 334 332 332 332 332 333 334 334 333 334 335 333 333 333 333 333
315 316 315 316 315 319 323 324 322 323 326 326 328 328 327 331 333 337 340 341 339 339 338 338 338 339 338 337 333 331 330 332 331 332 334 333 333 331 334 334 334 333 333 333
314 317 316 319 316 316 319 320 323 322 322 326 328 329 330 330 329 335 337 338 339 338 338 338 338 339 338 336 331 330 330 331 330 331 334 332 333 332 332 334 334 332 332 332
314 318 322 320 316 319 321 323 325 325 324 326 328 330 330 330 326 331 337 338 338 338 337 337 338 338 338 334 330 331 331 330 330 331 334 333 332 330 331 333 334 332 332 331
314 316 320 321 321 320 320 324 324 321 323 327 327 324 325 326 326 327 332 336 337 338 337 337 338 339 337 332 330 330 330 330 329 331 331 332 333 331 332 332 334 334 333 332
313 315 323 323 324 321 324 330 330 323 330 329 329 326 323 325 332 334 332 332 336 339 338 338 337 337 336 332 330 330 329 329 329 330 331 331 332 330 331 334 335 333 331 330
312 314 319 321 327 328 329 327 326 326 332 328 330 330 330 328 332 335 333 330 333 335 338 338 337 337 337 332 330 330 330 329 328 329 330 330 332 331 330 331 334 335 330 331
312 316 321 323 325 327 321 324 326 332 332 328 328 329 329 331 330 332 331 332 332 334 337 337 337 338 338 333 331 331 329 329 327 329 330 330 332 331 330 329 332 332 331 331
321 322 321 321 323 327 318 323 328 326 326 327 326 326 328 328 328 329 330 332 331 334 335 338 339 340 337 333 331 331 331 328 327 328 329 331 332 332 331 330 331 332 333 330
321 317 319 321 322 317 318 320 320 320 322 323 324 325 325 326 327 328 330 331 332 333 334 334 339 340 338 334 332 332 331 328 326 328 329 331 335 333 333 330 330 334 333 330
315 315 318 318 316 319 318 318 319 318 318 320 320 322 324 325 326 328 329 331 332 332 334 334 339 341 340 335 332 332 330 328 326 329 331 331 333 335 333 331 329 329 334 333
315 316 316 317 316 316 315 314 316 317 317 318 318 319 321 324 325 326 328 330 333 333 333 334 338 340 340 336 334 332 329 328 327 329 331 331 333 335 334 331 329 327 326 333
313 314 315 316 314 314 314 313 313 315 317 318 318 318 319 322 324 325 327 330 334 336 334 336 336 340 339 338 335 332 329 328 329 329 330 330 330 331 334 332 328 327 325 322

GFSCGP_925_thetae_045.txt.gz
Theta_e
308 309 313 313 314 316 319 322 323 323 323 324 324 324 324 325 325 325 326 326 326 326 325 327 329 330 336 336 338 341 345 347 346 346 346 345 338 338 335 335 334 333 336 336
313 309 311 314 314 315 316 317 318 321 323 322 323 324 325 325 325 325 326 326 327 326 328 329 331 337 337 341 342 343 347 347 346 346 344 342 340 337 335 334 334 335 334 335
313 313 312 314 315 316 316 316 316 317 320 321 321 321 321 323 325 326 327 326 327 326 326 324 335 337 339 341 340 340 343 346 346 344 342 339 337 337 335 336 336 335 334 334
306 309 314 313 314 316 316 317 317 319 319 320 320 321 321 322 324 326 327 326 326 326 326 324 337 337 339 340 339 340 345 344 342 340 339 339 338 335 335 334 334 335 335 335
306 307 309 313 314 315 316 317 317 318 318 318 319 320 321 324 326 326 327 326 326 325 324 324 337 339 340 340 340 342 342 340 340 338 337 337 336 337 335 334 334 335 335 335
307 308 307 307 309 314 314 317 317 316 316 318 318 320 321 321 322 324 325 324 324 322 324 337 338 339 340 341 341 341 340 338 339 339 337 336 335 336 336 336 335 335 334 333
311 310 310 309 308 309 312 313 315 318 318 318 317 321 322 322 323 324 324 324 323 324 332 339 339 338 339 340 342 341 339 341 336 339 337 337 337 336 336 334 334 335 335 332
314 317 316 314 309 308 309 313 315 319 320 318 319 321 320 322 323 323 324 323 323 325 337 338 338 337 338 340 341 340 341 339 337 337 336 335 336 334 334 335 335 335 333 332
316 314 312 311 311 309 308 310 314 315 318 318 319 319 319 319 320 322 323 325 336 336 338 338 337 337 339 339 339 340 340 339 338 336 335 335 335 336 335 334 334 335 335 335
312 314 310 309 311 315 315 311 315 315 318 321 320 320 320 320 323 323 326 327 337 338 337 337 336 337 338 338 339 339 339 338 338 335 333 334 334 333 333 333 333 334 333 333
311 312 313 312 312 316 314 310 311 314 316 320 322 320 320 329 329 325 327 326 338 337 337 337 337 337 338 338 339 340 339 337 336 334 333 334 332 333 332 333 334 335 334 332
312 314 316 313 314 315 315 313 311 314 318 318 320 321 320 324 328 326 327 327 336 336 337 336 337 336 337 337 339 339 337 335 334 332 333 333 334 333 333 333 333 334 334 333
312 313 316 315 314 315 319 321 315 316 317 318 320 321 320 324 327 327 324 329 337 336 336 336 336 336 335 336 337 337 334 334 333 333 333 333 333 334 333 333 333 332 333 332
313 312 314 316 316 316 319 317 319 320 320 319 320 320 320 326 326 327 330 336 336 337 336 336 336 336 335 336 335 335 334 333 332 334 333 334 333 334 333 333 333 333 332 332
313 314 312 311 312 314 317 317 317 318 319 322 319 321 319 327 329 336 334 336 336 337 336 336 336 336 334 334 333 333 333 332 333 333 333 332 332 333 333 333 333 333 332 331
313 313 314 316 316 316 318 316 316 317 318 320 321 321 328 327 334 337 336 336 337 337 336 335 336 335 334 332 331 331 332 331 332 335 333 331 330 333 333 333 332 333 332 332
312 315 318 319 318 316 317 314 315 316 318 321 323 328 327 328 330 334 336 335 336 336 335 336 336 335 333 330 330 330 332 331 333 334 333 332 331 330 333 333 331 332 332 331
311 313 317 322 320 322 316 318 326 328 327 327 326 328 328 331 331 330 331 333 334 335 335 335 335 333 332 330 329 329 331 330 332 334 333 332 330 329 333 333 332 331 331 330
310 314 320 324 323 322 319 323 324 330 332 331 328 325 327 331 330 329 330 331 332 332 333 333 334 335 331 330 329 331 330 330 329 332 334 332 330 332 332 332 333 332 331 331
311 314 317 320 324 328 322 319 321 325 333 331 329 329 329 329 331 330 329 330 330 329 332 334 335 334 329 329 329 330 329 329 329 330 332 332 330 332 332 332 332 330 329 331
317 317 318 320 324 321 317 318 323 333 331 325 328 327 326 329 328 327 328 328 329 330 332 335 335 333 330 329 329 329 329 328 328 330 330 332 331 331 331 332 332 331 330 330
317 320 321 320 323 324 316 318 324 322 321 324 322 322 326 326 326 327 328 329 330 331 331 334 335 334 331 329 329 329 328 328 328 330 330 332 329 329 331 332 332 330 331 330
317 316 318 313 316 318 314 316 318 318 319 319 319 320 322 323 324 326 327 328 329 331 330 333 336 334 331 329 328 329 328 328 327 330 332 331 330 329 329 331 333 331 329 329
315 315 317 317 316 317 315 315 314 314 315 318 317 318 318 320 322 324 326 327 328 329 332 331 336 334 331 330 329 328 329 327 327 329 332 333 332 330 328 332 332 331 329 329
314 314 312 316 314 314 313 313 313 313 315 316 317 316 317 317 319 323 325 325 326 329 332 333 336 336 333 331 330 329 330 327 327 330 334 334 333 331 329 328 332 332 329 329
313 312 314 314 311 313 313 312 313 314 314 315 315 316 316 316 318 322 323 324 325 326 328 331 334 337 335 332 331 330 330 327 329 330 331 334 333 333 331 329 327 328 333 331

GFSCGP_925_thetae_048.txt.gz
Theta_e
307 306 308 309 312 314 317 319 320 321 320 321 321 323 323 323 321 322 323 323 323 324 323 325 325 326 327 330 332 331 336 340 343 344 343 339 336 335 335 334 334 333 333 334
308 307 308 310 312 312 314 315 316 316 317 320 321 322 322 322 322 322 322 322 321 322 323 323 324 329 333 336 336 337 341 344 345 343 342 340 338 336 335 334 334 334 334 335
312 312 311 309 310 313 313 313 314 315 315 315 315 316 318 319 319 319 321 322 322 322 323 323 324 332 337 339 341 343 344 346 346 344 343 342 338 336 335 334 334 334 335 335
304 305 307 312 309 312 313 314 314 315 316 316 315 316 316 318 318 319 319 320 321 323 323 323 326 333 338 340 342 345 346 346 345 344 343 341 338 335 335 334 334 335 335 334
305 305 306 308 311 312 312 314 315 316 315 315 316 316 318 317 319 319 319 321 321 322 321 322 328 334 338 339 341 345 346 345 344 342 340 337 336 335 335 335 335 335 335 335
305 305 305 305 306 307 308 312 314 314 314 315 315 316 317 317 317 317 321 320 321 320 320 324 333 336 337 339 342 343 342 341 341 338 338 337 335 335 334 334 335 335 335 334
312 308 306 307 306 306 306 307 311 313 315 317 315 315 317 317 318 317 317 319 320 319 331 336 337 337 337 339 340 340 339 339 338 337 337 335 335 335 334 334 334 334 334 334
314 314 315 314 312 308 305 305 311 314 317 317 315 317 316 317 317 317 318 319 320 319 334 336 337 337 338 338 338 338 338 337 339 337 336 336 335 335 334 334 334 334 333 332
313 312 310 309 309 309 309 306 307 310 312 314 316 316 317 317 316 317 317 319 319 326 335 337 336 337 338 338 337 338 337 337 336 335 334 334 334 334 333 333 333 334 334 332
311 312 311 309 309 309 310 311 308 308 314 315 316 318 318 317 317 317 317 317 330 335 336 336 336 337 338 337 337 339 337 337 335 334 333 334 334 335 334 333 332 333 333 334
310 311 311 311 311 311 313 312 310 308 311 316 316 317 315 316 317 317 321 321 337 337 337 336 337 337 336 336 338 338 337 337 335 334 333 333 333 333 332 332 333 334 333 332
309 312 314 311 309 309 312 314 313 308 309 314 315 316 317 315 315 318 321 336 336 337 336 336 336 335 336 336 337 337 337 337 334 333 332 333 332 332 331 333 334 333 333 331
312 310 312 308 311 314 314 319 316 315 308 311 315 317 315 316 317 318 323 336 336 336 336 336 336 336 336 336 337 336 336 335 333 331 333 333 333 333 333 332 333 333 332 332
312 312 310 310 310 313 314 315 315 317 320 314 313 314 316 316 316 317 326 335 336 336 337 337 336 335 336 336 336 334 334 334 332 332 333 333 332 332 333 332 332 332 332 331
311 313 313 312 311 311 312 313 314 317 317 320 319 318 317 317 316 317 326 335 337 337 337 337 336 335 335 335 334 333 333 333 332 333 333 331 333 332 332 333 333 332 331 331
312 315 316 315 313 314 315 315 316 316 315 316 317 318 317 318 329 332 333 336 337 337 337 336 335 335 335 334 332 331 332 332 332 333 333 331 331 331 332 332 332 332 331 330
310 311 314 316 316 317 318 317 316 313 315 317 318 317 318 332 335 333 334 337 337 337 336 336 335 335 334 333 331 330 331 331 333 333 332 331 330 331 333 332 331 331 331 330
309 311 315 314 316 321 317 321 324 325 327 330 326 321 321 331 329 332 332 334 336 335 335 336 335 334 332 331 330 330 331 331 333 333 332 331 330 330 332 332 331 331 330 330
309 312 315 319 322 321 319 318 321 325 329 329 327 330 326 329 329 330 329 332 332 334 333 334 334 333 331 329 328 330 329 331 332 332 333 331 329 330 332 332 331 331 330 330
310 311 315 317 321 324 318 313 314 319 330 324 323 326 331 329 333 332 328 329 330 332 333 334 333 331 328 328 328 329 328 330 331 332 333 331 330 330 331 332 331 331 330 330
318 316 317 317 320 320 315 312 317 331 325 320 322 323 326 329 331 327 327 330 330 330 332 333 333 330 328 327 328 328 327 326 330 333 332 331 330 330 330 331 330 330 330 329
315 317 320 317 322 321 312 313 319 317 317 317 319 321 322 321 323 325 326 329 331 331 332 333 331 329 327 327 328 327 326 328 328 328 332 332 331 331 331 331 330 329 330 328
318 315 316 312 314 311 311 312 315 315 316 316 318 318 319 317 318 322 326 329 331 333 332 332 330 327 327 327 327 326 327 328 327 328 330 331 331 331 332 331 331 329 330 328
312 312 314 313 314 312 313 313 313 314 315 315 316 316 317 316 317 319 324 324 327 329 333 334 331 329 327 327 326 327 328 328 327 329 330 330 330 331 331 331 330 330 329 328
312 312 312 313 312 313 312 312 313 314 315 315 315 314 315 314 316 318 321 322 323 327 330 332 334 331 329 327 327 327 328 327 327 330 329 328 328 330 331 331 331 330 329 328
311 313 313 314 312 313 312 311 312 314 315 315 315 315 314 313 314 317 320 320 322 327 328 329 332 334 330 328 327 328 327 327 327 329 330 329 328 328 330 331 331 330 328 327